STARLINK-3341 (50817 NORAD) Tracking and Keplerian Element Data

This shows tracking and keplerian element data for the satellite.

Feedback or suggestion? Click here.




ElementValue
Catalog50817
NameSTARLINK-3341
Epoch Orbit380
Epoch Day22.91667824
Epoch Year2022
RAAN119.7806
Inclination53.2175
Eccentricity0.0001034
Argument of Perigee87.7185
Mean Anonmoly217.6356
Mean Motion15.75101075
Decay Rate-0.00820893
L11 50817U 22001Q 22022.91667824 -.00820893 00000+0 -59286-2 0 9990
L22 50817 53.2175 119.7806 0001034 87.7185 217.6356 15.75101075 3805

Live tracking and technical data element details for STARLINK-3341 (NORAD 50817). STARLINK-3341 can be tracked NOW for your location showing map with azimuth and elevation plus other details from your city location.

Track the satellite on the map from your city or location and see movement details for azimuth, elevation, latitude, longitude, range, height, and movement on the map or in text.







IsCatalogInMostPopularTable: catalog: 50817, numindb: 3
Update: records affected: 1



GetName: 50817 STARLINK-3341

Hit Count: updated at: Sun, 23 Jan 2022 23:57:12 GMT